Flag for Poland Weather past 2 weeks in Wroclaw, Poland

Now
57 °F

Passing clouds.


Feels Like: 56 °F
Forecast: 40 / 57 °F
Wind: 7 mph from Northwest

Location: Wroclaw Ii

Current Time: Apr 28, 2015 at 3:42:37 AM

Latest Report: Apr 28, 2015 at 3:00 AM


Visibility: 5 mi

Pressure: 29.59 "Hg

Humidity: 88%

Dew point: 54 °F

Location of WroclawLocation

Historic Weather in Wroclaw — Graph

°F

Wroclaw temperature yesterday

Maximum temperature yesterday: 79 °F (at 3:30 PM)
Minimum temperature yesterday: 45 °F (at 3:00 AM)
Average temperature yesterday: 62 °F

Past Weeks' High & Low Weather Summary

 TemperatureHumidityPressure
High79 °F (Apr 27, 3:30 PM)94% (Apr 26, 6:30 AM)30.33 "Hg (Apr 26, 6:30 AM)
Low32 °F (Apr 19, 5:30 AM)20% (Apr 21, 3:00 PM)29.53 "Hg (Apr 27, 5:30 PM)
Average54 °F58%30.01 "Hg
* Reported Apr 13 2:00 AM — Apr 28 2:30 AM, Wroclaw, Weather by CustomWeather, © 2015

Note: Actual official high and low records may vary slightly from our data, if they occured in-between our weather recording intervals... More about our weather records

Advertising

Wroclaw weather history for previous 24 hours

 ConditionsComfort  
Time TempWeatherWind HumidityBarometerVisibility
2:30 AM
Tue, Apr 28
57 °FPassing clouds.8 mph88%29.59 "Hg5 mi
2:00 AM57 °FPassing clouds.9 mph88%29.59 "Hg5 mi
1:30 AM57 °FPassing clouds.14 mph88%29.59 "HgN/A
1:00 AM57 °FPassing clouds.8 mph94%29.59 "HgN/A
12:30 AM57 °FPassing clouds.9 mph88%29.56 "HgN/A
12:00 AM59 °FSprinkles. Passing clouds.13 mph88%29.56 "HgN/A
11:30 PM
Mon, Apr 27
63 °FPassing clouds.10 mph77%29.56 "HgN/A
11:00 PM63 °FPassing clouds.2 mph83%29.53 "HgN/A
10:30 PM63 °FPassing clouds.3 mph68%29.53 "HgN/A
10:00 PM64 °FClear.5 mph64%29.53 "Hg10 mi
9:30 PM64 °FClear.3 mph64%29.53 "Hg10 mi
9:00 PM64 °FSunny.3 mph64%29.53 "Hg10 mi
8:30 PM68 °FSunny.3 mph53%29.53 "Hg10 mi
8:00 PM70 °FPassing clouds.6 mph50%29.53 "HgN/A
7:30 PM72 °FPassing clouds.6 mph47%29.53 "HgN/A
7:00 PM72 °FSunny.8 mph44%29.53 "Hg10 mi
6:30 PM73 °FThundershowers. Passing clouds.9 mph44%29.53 "HgN/A
6:00 PM75 °FThundershowers. Passing clouds.12 mph39%29.53 "HgN/A
5:30 PM77 °FPassing clouds.14 mph39%29.53 "HgN/A
5:00 PM77 °FPassing clouds.12 mph42%29.56 "HgN/A
4:30 PM79 °FPassing clouds.8 mph32%29.56 "HgN/A
4:00 PM79 °FPassing clouds.9 mph37%29.56 "HgN/A
3:30 PM79 °FPassing clouds.10 mph37%29.56 "HgN/A
3:00 PM77 °FPassing clouds.12 mph47%29.59 "HgN/A
2:30 PM77 °FPassing clouds.12 mph44%29.59 "HgN/A
2:00 PM75 °FPassing clouds.12 mph47%29.59 "HgN/A
1:30 PM75 °FPassing clouds.12 mph47%29.59 "HgN/A
1:00 PM73 °FPassing clouds.10 mph47%29.59 "HgN/A
12:30 PM73 °FPassing clouds.12 mph50%29.62 "HgN/A
12:00 PM72 °FPassing clouds.12 mph53%29.62 "HgN/A
11:30 AM72 °FPassing clouds.10 mph53%29.62 "HgN/A
11:00 AM72 °FSunny.10 mph53%29.62 "Hg10 mi
10:30 AM68 °FPassing clouds.8 mph64%29.65 "HgN/A
10:00 AM66 °FSunny.10 mph64%29.65 "Hg10 mi
9:30 AM61 °FSunny.7 mph77%29.65 "Hg10 mi
9:00 AM59 °FSunny.8 mph82%29.65 "Hg10 mi
8:30 AM57 °FSunny.8 mph88%29.65 "Hg10 mi
8:00 AM54 °FSunny.10 mph88%29.68 "Hg10 mi
7:30 AM52 °FSunny.9 mph88%29.68 "Hg10 mi
7:00 AM50 °FClear.8 mph88%29.68 "Hg6 mi
6:30 AM46 °FClear.5 mph87%29.68 "Hg5 mi
6:00 AM46 °FFog.5 mph87%29.68 "Hg5 mi
5:30 AM46 °FLight fog.3 mph87%29.68 "Hg1 mi
5:00 AM46 °FLight fog.6 mph87%29.68 "Hg1 mi
4:30 AM46 °FLight fog.6 mph87%29.71 "Hg1 mi
4:00 AM48 °FLight fog.3 mph87%29.71 "Hg1 mi
3:30 AM45 °FLight fog.3 mph93%29.71 "Hg0 mi
3:00 AM45 °FLight fog.3 mph87%29.71 "Hg0 mi
Weather by CustomWeather, © 2015

See weather overviewHow to use our weather pages